map of NST home
Great Circle Mapper logo
NST - Airport
Location
City:  Nakhon Si Thammarat, Nakhon Si Thammarat, Thailand
ICAO:VTSF
IATA:NST

Details
Type:Airport (Aerodrome, Airfield)
Use:Public/Civil
Latitude:8°32'23"N (8.539617)
Longitude:99°56'41"E (99.944725)
Datum:WGS 1984
Elevation:13 ft (4 m)
Variation:0.37°W (WMM2015 magnetic declination)
0.01° annual change
Runways:1
Longest:6890 × 148 ft (2100 × 45 m), paved

Time
Time Zone:UTC+7
Local Time:

Weather
METAR:VTSF 271300Z 00000KT 9999 FEW016CB FEW020 26/25 Q1009
TAF:VTSF 271700Z 2718/2818 00000KT 9999 FEW020
BECMG 2802/2804 08008KT
TEMPO 2807/2813 VRB11KT 7000 -TSRA FEW016CB SCT018 BKN100
BECMG 2812/2814 00000KT

Related Locations
Nearby:
Farthest:TRU: 12372 mi / 19911 km
Trujillo [Capitán FAP Carlos Martínez de Pinillos Intl], LAL, PE

Find:

   beyond  
but within

Other Information
Maps:
NOTAMs:
Links:
Sources:

  
flag of Thailand   

Sectional Chart

Flight Planning
at skyvector.com

Satellite Image

Google Maps Satellite view

 

Copyright © 2004-2016 Karl L. Swartz. All rights reserved.
The Great Circle Mapper name and logo are trademarks of the Great Circle Mapper.
All other trademarks mentioned herein belong to their respective owners.
Please see credits for attibutions and further copyright information.

  Follow gcmap on Facebook Follow gcmap on Twitter Follow gcmap on Google+ GCmap on LinkedIn

hCard Microformat

Geo Microformat